MONITOR-4 (RS57S)

Last updated on Sun Aug 09 2026 00:03:15 GMT+0000 (Coordinated Universal Time)

1 57182U 23091S 26220.61800379 .00005286 00000+0 19095-3 0 9991 2 57182 97.5044 284.4475 0009533 273.8327 86.1823 15.28880935172300
UTC large
Height (km)
Speed (km/s)
/
Latitude / Longitude
Inclination (degrees)
Orbital Period (minutes)
Azimuth
Elevation
Range (km)
Doppler Factor

Next 0 passes for location: London (51.5072 / 0.1276)

No passes found over London.
MONITOR-4 (RS57S)